Location: Newark
(34.6283°N, 36.0776°E)
Time: 07:10:56
(UTC+00:00)

A-11 Canister half - Pass Details

Date: 23 September 2019
Orbit: 1527 x 1682 km, 47.3° (Epoch: 20 October)

Event Time Altitude Azimuth Distance (km) Brightness Sun altitude
Rises 03:20:47 0° 281° (W) 4,707 - -1.5°
Exits shadow 03:21:00 - 281° (WNW) 4,641 10.9 -1.5°
Reaches altitude 10° 03:24:08 10° 289° (WNW) 3,740 10.5 -0.8°
Maximum altitude 03:32:51 39° 356° (N) 2,232 9.9 1.0°
Drops below altitude 10° 03:41:50 10° 63° (ENE) 3,852 12.3 2.8°
Sets 03:45:21 0° 71° (ENE) 4,861 13.2 3.5°
